Flag for Kazakhstan Weather past 2 weeks in Almaty, Kazakhstan

41 °F

Passing clouds.

Feels Like: 41 °F
Forecast: 31 / 51 °F
Wind: 1 mph from North

Location: Almaty Airport

Current Time: Nov 29, 2015 at 8:38:08 PM

Latest Report: Nov 29, 2015 at 8:00 PM

Visibility: 1 mi

Pressure: 30.27 "Hg (27.47 "Hg at 790m altitude)

Humidity: 70%

Dew point: 32 °F

Location of AlmatyLocation

Historic Weather in Almaty — Graph


Almaty temperature yesterday

Maximum temperature yesterday: 48 °F (at 3:30 PM)
Minimum temperature yesterday: 28 °F (at 12:30 AM)
Average temperature yesterday: 35 °F

Past Weeks' High & Low Weather Summary

High52 °F (Nov 29, 1:00 PM)100% (Nov 16, 2:00 AM)30.51 "Hg (Nov 16, 2:00 AM)
Low23 °F (Nov 27, 7:00 AM)33% (Nov 16, 2:30 PM)29.80 "Hg (Nov 15, 2:00 PM)
Average36 °F84%30.22 "Hg
* Reported Nov 14 7:00 PM — Nov 29 7:30 PM, Almaty, Weather by CustomWeather, © 2015

Note: Actual official high and low records may vary slightly from our data, if they occured in-between our weather recording intervals... More about our weather records


Almaty weather history for previous 24 hours

Time TempWeatherWind HumidityBarometerVisibility
7:30 PM
Sun, Nov 29
43 °FPassing clouds.6 mph66%30.27 "Hg1 mi
7:00 PM43 °FPassing clouds.1 mph66%30.27 "Hg1 mi
6:30 PM43 °FPassing clouds.3 mph66%30.27 "Hg2 mi
6:00 PM43 °FPassing clouds.8 mph66%30.27 "Hg3 mi
5:30 PM43 °FPartly cloudy.8 mph66%30.24 "Hg3 mi
5:00 PM45 °FBroken clouds.6 mph57%30.24 "HgN/A
4:30 PM46 °FBroken clouds.8 mph57%30.24 "HgN/A
3:30 PM52 °FScattered clouds.8 mph41%30.24 "HgN/A
3:00 PM48 °FBroken clouds.8 mph50%30.21 "HgN/A
2:30 PM50 °FBroken clouds.10 mph47%30.21 "HgN/A
2:00 PM50 °FBroken clouds.10 mph47%30.18 "HgN/A
1:00 PM52 °FPartly sunny.10 mph41%30.21 "HgN/A
12:30 PM50 °FPartly sunny.6 mph47%30.21 "HgN/A
11:00 AM48 °FBroken clouds.6 mph46%30.21 "HgN/A
10:30 AM46 °FBroken clouds.6 mph50%30.18 "HgN/A
10:00 AM48 °FPartly sunny.3 mph43%30.18 "Hg3 mi
9:30 AM46 °FPartly sunny.3 mph46%30.18 "Hg3 mi
9:00 AM45 °FMore clouds than sun.3 mph46%30.15 "HgN/A
8:30 AM43 °FMore clouds than sun.3 mph49%30.15 "HgN/A
8:00 AM45 °FMostly cloudy.6 mph46%30.12 "HgN/A
7:30 AM45 °FMostly cloudy.10 mph42%30.09 "HgN/A
7:00 AM45 °FMostly cloudy.10 mph46%30.12 "HgN/A
6:30 AM39 °FMostly cloudy.1 mph65%30.12 "Hg3 mi
6:00 AM37 °FFog.8 mph75%30.12 "Hg2 mi
5:30 AM37 °FFog.No wind75%30.12 "Hg1 mi
5:00 AM37 °FFog.3 mph75%30.09 "Hg1 mi
4:00 AM36 °FFog.6 mph75%30.07 "Hg1 mi
3:30 AM34 °FFog.1 mph81%30.07 "Hg1 mi
3:00 AM36 °FFog.No wind75%30.04 "Hg1 mi
2:30 AM36 °FFog.1 mph81%30.04 "Hg1 mi
2:00 AM34 °FFog.3 mph87%30.04 "Hg1 mi
1:30 AM36 °FFog.6 mph75%30.01 "Hg1 mi
1:00 AM36 °FFog.6 mph81%30.01 "Hg1 mi
12:30 AM34 °FFog.6 mph75%30.01 "Hg1 mi
12:00 AM32 °FIce fog.3 mph80%30.01 "Hg1 mi
11:30 PM
Sat, Nov 28
32 °FIce fog.1 mph80%30.01 "Hg1 mi
11:00 PM32 °FIce fog.No wind80%30.01 "Hg1 mi
10:30 PM34 °FFog.1 mph75%30.01 "Hg1 mi
10:00 PM34 °FFog.No wind75%30.01 "Hg1 mi
9:30 PM34 °FFog.3 mph75%30.01 "Hg1 mi
9:00 PM34 °FFog.3 mph81%30.01 "Hg0 mi
8:30 PM34 °FFog.1 mph81%30.01 "Hg0 mi
8:00 PM34 °FFog.3 mph81%30.01 "Hg0 mi
Weather by CustomWeather, © 2015

See weather overviewHow to use our weather pages